|   |  | Asteroid 2012 HN40
					
					
					
					
						
					
					
						
							(Preview) 
						
							
								Orbital elements:
2012 HN40                                                Earth MOID = 0.0637 AU
Epoch 2012 Mar. 14.0 TT = JDT 2456000.5                 MPC
M 331.63764              (2000.0)            P               Q
n   0.22166914     Peri.  242.88035     +0.57649027     +0.78389246
a   2.7039535      Node    64.22009     -0.62926013     +0.60593674
e   0.6700433      Incl.   14.83739     -0.52123955     +0.13547427
P   4.45           H   20.2...                                 | Blobrana | 0 |  |  | 
		
			
			
				
				
					|   |  | Asteroid 2012 JQ
					
					
					
					
						
					
					
						
							(Preview) 
						
							
								Orbital elements:
2012 JQ                                                  Earth MOID = 0.0394 AU
Epoch 2012 Mar. 14.0 TT = JDT 2456000.5                 MPC
M 351.54059              (2000.0)            P               Q
n   0.29123364     Peri.  151.05554     -0.96244291     +0.26196189
a   2.2541096      Node    44.32041     -0.26456665     -0.84613718
e   0.5462373      Incl.    5.85493     -0.06089448     -0.46414204
P   3.38           H   23.1           G   0.... | Blobrana | 0 |  |  | 
		
			
			
				
				
					|   |  | Asteroid 2012 FB57
					
					
					
					
						
					
					
						
							(Preview) 
						
							
								Orbital elements:
2012 FB57                                                Earth MOID = 0.2327 AU
Epoch 2012 Mar. 14.0 TT = JDT 2456000.5                 MPC
M   0.95416              (2000.0)            P               Q
n   0.38255764     Peri.   31.12317     -0.90727890     -0.41291090
a   1.8793376      Node   124.28143     +0.36328039     -0.86501538
e   0.3530710      Incl.    5.53405     +0.21183097     -0.28504909
P   2.58           H   19.5           G   0.... | Blobrana | 1 |  |  | 
		
			
			
				
				
					|   |  | Asteroid 1999 OQ3
					
					
					
					
						
					
					
						
							(Preview) 
						
							
								Orbital elements:
1999 OQ3                                                 Earth MOID = 0.0870 AU
Epoch 2012 Mar. 14.0 TT = JDT 2456000.5                 MPC
M 300.80156              (2000.0)            P               Q
n   0.37729814     Peri.  164.36351     +0.67598472     +0.73208734
a   1.8967624      Node   148.02607     -0.69201364     +0.66991975
e   0.4232694      Incl.    9.15136     -0.25330175     +0.12351377
P   2.61           H   20.1           G... | Blobrana | 0 |  |  | 
		
			
			
				
				
					|   |  | Asteroid 2012 DK61
					
					
					
					
						
					
					
						
							(Preview) 
						
							
								Orbital elements:
2012 DK61                                                Earth MOID = 0.0676 AU
Epoch 2012 Mar. 14.0 TT = JDT 2456000.5                 MPC
M 274.25762              (2000.0)            P               Q
n   0.70990813     Peri.  301.25141     +0.13257441     +0.99018309
a   1.2445183      Node   336.24630     -0.86789549     +0.09438794
e   0.1674077      Incl.    6.31244     -0.47872899     +0.10309396
P   1.39           H   20.9... | Blobrana | 1 |  |  | 
		
			
			
				
				
					|   |   | Asteroid 2009 EV = 2008 PG1
					
					
					
					
						
					
					
						
							(Preview) 
						
							
								Orbital elements:
2009 EV = 2008 PG1                                  PHA, Earth MOID = 0.0305 AU
Epoch 2012 Mar. 14.0 TT = JDT 2456000.5                 MPC
M 190.33249              (2000.0)            P               Q
n   0.43372863     Peri.  250.09748     +0.84914607     -0.49161638
a   1.7284520      Node   138.70492     +0.52309011     +0.83332312
e   0.5233368      Incl.   17.00841     -0.07299105     +0.25275662... | Blobrana | 0 |  |  | 
		
			
			
				
				
					|   |  | Asteroid 2012 HB25
					
					
					
					
						
					
					
						
							(Preview) 
						
							
								Orbital elements:
2012 HB25                                                Earth MOID = 0.0007 AU
Epoch 2012 Mar. 14.0 TT = JDT 2456000.5                 MPC
M 338.77697              (2000.0)            P               Q
n   0.25693872     Peri.  333.13740     -0.13743557     +0.99019844
a   2.4504716      Node   288.95457     -0.90398413     -0.13565331
e   0.6040210      Incl.    1.50680     -0.40487549     -0.03324491
P   3.84           H   24.7...                                    | Blobrana | 1 |  |  | 
		
			
			
				
				
					|   |  | Asteroid 2005 SQ9
					
					
					
					
						
					
					
						
							(Preview) 
						
							
								The 68 - 150 metre wide asteroid 2005 SQ9 will make a close pass (35.3 lunar distances, 0.0908 AU), travelling at 10.42 km/second, to the Earth-Moon system on the 11th May, 2012 @ 07:21 UT ± 2 days_09:19. See more The Lunar Di...               | Blobrana | 0 |  |  | 
		
			
			
				
				
					|   |  | Asteroid 2012 GB5
					
					
					
					
						
					
					
						
							(Preview) 
						
							
								Orbital elements:
2012 GB5                                                 Earth MOID = 0.0413 AU
Epoch 2012 Mar. 14.0 TT = JDT 2456000.5                 MPC
M 332.06227              (2000.0)            P               Q
n   0.31693472     Peri.   71.88041     -0.00976793     +0.99958140
a   2.1305391      Node   197.62674     -0.94807952     -0.01791543
e   0.5748257      Incl.    5.15969     -0.31788333     +0.02271717
P   3.11           H   23.8           G   0...                      | Blobrana | 1 |  |  | 
		
			
			
				
				
					|   |  | Asteroid 2012 HM8
					
					
					
					
						
					
					
						
							(Preview) 
						
							
								Orbital elements:
2012 HM8                                                 Earth MOID = 0.0180 AU
Epoch 2012 Mar. 14.0 TT = JDT 2456000.5                 MPC
M 346.23311              (2000.0)            P               Q
n   0.20892508     Peri.  179.21964     -0.47996504     +0.87595192
a   2.8128225      Node    62.09607     -0.80519202     -0.41795198
e   0.6335726      Incl.    3.13901     -0.34828060     -0.24088250
P   4.72           H   23.9           G   0...                      | Blobrana | 1 |  |  | 
		
			
			
				
				
					|   |  | Asteroid 2003 UF22
					
					
					
					
						
					
					
						
							(Preview) 
						
							
								Orbital elements:
2003 UF22                                                Earth MOID = 0.1792 AU
Epoch 2012 Mar. 14.0 TT = JDT 2456000.5                 MPC
M  86.11166              (2000.0)            P               Q
n   0.38105658     Peri.   13.21140     +0.75481505     -0.64899499
a   1.8842698      Node    27.97382     +0.58185772     +0.59549157
e   0.3799571      Incl.   11.70768     +0.30281320     +0.47349264
P   2.59           H   20.1           G   0... | Blobrana | 0 |  |  | 
		
			
			
				
				
					|   |  | Asteroid 2012 JA
					
					
					
					
						
					
					
						
							(Preview) 
						
							
								Orbital elements:
2012 JA                                                  Earth MOID = 0.0095 AU
Epoch 2012 Mar. 14.0 TT = JDT 2456000.5                 MPC
M 330.07193              (2000.0)            P               Q
n   0.32405197     Peri.  234.83584     +0.12595950     +0.99168608
a   2.0992280      Node    42.42459     -0.89701539     +0.12518693
e   0.5600387      Incl.    2.23623     -0.42367157     +0.02978175
P   3.04           H   24.7           G   0.... | Blobrana | 1 |  |  | 
		
			
			
				
				
					|   |  | Asteroid 2001 SZ269
					
					
					
					
						
					
					
						
							(Preview) 
						
							
								The 360 - 810 metre wide asteroid 2001 SZ269 made a close pass (31.4 lunar distances, 0.0807 AU), travelling at 18.37 km/second, to the Earth-Moon system on the 2nd May, 2012 @ 07:22 UT ±00:01.  See more The Lunar Distance (...              | Blobrana | 0 |  |  | 
		
			
			
				
				
					|   |  | Asteroid 2012 HY33
					
					
					
					
						
					
					
						
							(Preview) 
						
							
								Orbital elements:
2012 HY33                                                Earth MOID = 0.1624 AU
Epoch 2012 Mar. 14.0 TT = JDT 2456000.5                 MPC
M 293.49492              (2000.0)            P               Q
n   0.34827626     Peri.  270.34265     +0.87061555     +0.43658790
a   2.0007222      Node    63.78207     -0.28669856     +0.82482093
e   0.5438493      Incl.   14.64108     -0.39979056     +0.35925121
P   2.83           H   19.5... | Blobrana | 0 |  |  | 
		
			
			
				
				
					|   |  | Asteroid 2006 FZ51
					
					
					
					
						
					
					
						
							(Preview) 
						
							
								Orbital elements:
2006 FZ51
Epoch 2012 Mar. 14.0 TT = JDT 2456000.5                 MPC
M 340.14102              (2000.0)            P               Q
n   0.16482314     Peri.  322.82079     -0.03924782     +0.99660278
a   3.2945082      Node   304.81904     -0.89426952     -0.06736122
e   0.5043757      Incl.    5.05982     -0.44580448     +0.04738535
P   5.98           H   16.9           G   0.15           U   2 MPEC 2012 - J0... | Blobrana | 0 |  |  |